N1SU-13 Weather Reports


Display with metric or nautical units.
time (UTC)temp
F
wind
direction
speed
MPH
gust
MPH
rain 1hr
in
rain 24hr
in
rain mn
in
humidity
%
barometer
mb
20260831102836 51 0.0 0.0 0.00 0.00 0.00 87 1014.2
20260831101730 51 0.0 0.0 0.00 0.00 0.00 86 1014.4
20260831100605 52 0.0 0.0 0.00 0.00 0.00 86 1014.4
20260831095512 52 0.0 0.0 0.00 0.00 0.00 85 1014.5
20260831094451 52 0.0 0.0 0.00 0.00 0.00 85 1014.5
20260831093329 52 0.0 0.0 0.00 0.00 0.00 84 1014.8
20260831092226 53 0.0 0.0 0.00 0.00 0.00 84 1014.8
20260831091207 53 0.0 0.0 0.00 0.00 0.00 84 1014.9
20260831090150 53 0.0 0.0 0.00 0.00 0.00 83 1015.0
20260831085115 53 0.0 0.0 0.00 0.00 0.00 83 1015.1
20260831084022 53 0.0 0.0 0.00 0.00 0.00 82 1015.0
20260831083013 53 0.0 0.0 0.00 0.00 0.00 82 1015.1
20260831081943 54 0.0 0.0 0.00 0.00 0.00 81 1015.1
20260831080859 54 0.0 0.0 0.00 0.00 0.00 81 1015.2
20260831075907 54 0.0 0.0 0.00 0.00 0.00 81 1015.3
20260831074801 54 0.0 0.0 0.00 0.00 0.00 81 1015.5
20260831073736 54 0.0 0.0 0.00 0.00 0.00 81 1015.4
20260831072747 54 0.0 0.0 0.00 0.00 0.00 80 1015.4
20260831071631 55 0.0 0.0 0.00 0.00 0.00 80 1015.6
20260831070700 55 0.0 0.0 0.00 0.00 0.00 80 1015.7
20260831065520 55 0.0 0.0 0.00 0.00 0.00 79 1015.9
20260831064600 55 0.0 0.0 0.00 0.00 0.00 78 1015.9
20260831063631 56 0.0 0.0 0.00 0.00 0.00 78 1015.9
20260831062508 56 0.0 0.0 0.00 0.00 0.00 78 1016.0
20260831061348 56 0.0 0.0 0.00 0.00 0.00 77 1016.1
20260831060305 56 0.0 0.0 0.00 0.00 0.00 77 1016.1
20260831055338 57 0.0 0.0 0.00 0.00 0.00 76 1016.2
20260831054406 57 0.0 0.0 0.00 0.00 0.00 76 1016.3
20260831053428 57 0.0 0.0 0.00 0.00 0.00 75 1016.6
20260831052318 58 0.0 0.0 0.00 0.00 0.00 74 1016.5
20260831051206 58 0.0 0.0 0.00 0.00 0.00 73 1016.5
20260831050053 58 0.0 0.0 0.00 0.00 0.00 73 1016.6
20260831045002 59 0.0 0.0 0.00 0.00 0.00 72 1016.7
20260831043840 59 0.0 0.0 0.00 0.00 0.00 71 1016.7
20260831042908 60 0.0 0.0 0.00 0.00 0.00 70 1016.6
20260831041806 60 0.0 0.0 0.00 0.00 0.00 69 1016.6
20260831040658 61 0.0 0.0 0.00 0.00 0.00 68 1016.6
20260831035604 61 0.0 0.0 0.00 0.00 0.00 66 1016.6
20260831034425 61 0.0 0.0 0.00 0.00 0.00 65 1016.4
20260831033741 62 0.0 0.0 0.00 0.00 0.00 65 1016.4
20260831033351 62 0.0 0.0 0.00 0.00 0.00 64 1016.3
20260831032505 62 0.0 0.0 0.00 0.00 0.00 63 1016.3
20260831032419 62 0.0 0.0 0.00 0.00 0.00 63 1016.3
20260831031848 63 0.0 0.0 0.00 0.00 0.00 63 1016.2
20260831031423 63 0.0 0.0 0.00 0.00 0.00 62 1016.3
20260831030240 64 0.0 0.0 0.00 0.00 0.00 62 1016.0
20260831030143 64 0.0 0.0 0.00 0.00 0.00 62 1016.1
20260831025257 65 0.0 0.0 0.00 0.00 0.00 61 1016.0
20260831024300 66 0.0 0.0 0.00 0.00 0.00 60 1016.0
20260831023332 66 0.0 0.0 0.00 0.00 0.00 57 1016.0
20260831022356 67 0.0 0.0 0.00 0.00 0.00 56 1016.1
20260831021333 68 0.0 0.0 0.00 0.00 0.00 53 1016.1
20260831020322 69 0.0 0.0 0.00 0.00 0.00 51 1016.0
20260831015251 68 0.0 0.0 0.00 0.00 0.00 52 1016.1
20260831014206 68 0.0 0.0 0.00 0.00 0.00 52 1016.1
20260831013152 69 0.0 0.0 0.00 0.00 0.00 51 1016.2
20260831012122 69 0.0 0.0 0.00 0.00 0.00 52 1016.2
20260831011122 70 0.0 0.0 0.00 0.00 0.00 49 1016.2
20260831010059 70 0.0 0.0 0.00 0.00 0.00 49 1016.3
20260831005042 71 0.0 0.0 0.00 0.00 0.00 49 1016.3
20260831003930 71 0.0 0.0 0.00 0.00 0.00 49 1016.3
20260831003001 70 0.0 0.0 0.00 0.00 0.00 49 1016.5
20260831001952 69 0.0 0.0 0.00 0.00 0.00 50 1016.5
20260831001002 69 0.0 0.0 0.00 0.00 0.00 50 1016.4
20260830235922 69 0.0 0.0 0.00 0.00 0.00 51 1016.7
20260830234801 70 0.0 0.0 0.00 0.00 0.00 51 1016.7
20260830233746 70 0.0 0.0 0.00 0.00 0.00 50 1016.7
20260830232706 70 0.0 0.0 0.00 0.00 0.00 49 1016.7
20260830231545 70 0.0 0.0 0.00 0.00 0.00 50 1016.7
20260830230550 70 0.0 0.0 0.00 0.00 0.00 50 1016.9
20260830225533 69 0.0 0.0 0.00 0.00 0.00 51 1017.1
20260830224354 69 0.0 0.0 0.00 0.00 0.00 51 1017.2
20260830223331 68 0.0 0.0 0.00 0.00 0.00 52 1017.3
20260830222320 68 0.0 0.0 0.00 0.00 0.00 51 1017.4
20260830221255 69 0.0 0.0 0.00 0.00 0.00 52 1017.3
20260830220314 68 0.0 0.0 0.00 0.00 0.00 55 1017.4
20260830215258 66 0.0 0.0 0.00 0.00 0.00 56 1017.6
20260830214158 66 0.0 0.0 0.00 0.00 0.00 56 1017.8
20260830213910 58 0.0 0.0 0.00 0.52 0.00 73 1018.0
20260830213101 65 0.0 0.0 0.00 0.00 0.00 57 1017.9
20260830212056 64 0.0 0.0 0.00 0.00 0.00 60 1018.1
20260830210950 64 0.0 0.0 0.00 0.00 0.00 59 1018.3
20260830205817 65 0.0 0.0 0.00 0.00 0.00 57 1018.4
20260830205014 65 0.0 0.0 0.00 0.00 0.00 57 1018.3
20260830204758 65 0.0 0.0 0.00 0.00 0.00 57 1018.3
20260830203809 65 0.0 0.0 0.00 0.00 0.00 57 1018.4
20260830202837 64 0.0 0.0 0.00 0.00 0.00 62 1018.6
20260830202803 64 0.0 0.0 0.00 0.00 0.00 62 1018.6
20260830201702 63 0.0 0.0 0.00 0.00 0.00 62 1018.7
20260830200607 62 0.0 0.0 0.00 0.00 0.00 62 1018.9
20260830195636 62 0.0 0.0 0.00 0.00 0.00 63 1018.9
20260830194535 62 0.0 0.0 0.00 0.00 0.00 63 1018.8
20260830193534 62 0.0 0.0 0.00 0.00 0.00 63 1018.9
20260830192511 62 0.0 0.0 0.00 0.00 0.00 63 1018.8
20260830191357 61 0.0 0.0 0.00 0.00 0.00 65 1019.0
20260830190355 60 0.0 0.0 0.00 0.00 0.00 68 1019.0
20260830185321 59 0.0 0.0 0.00 0.00 0.00 69 1019.3
20260830184232 59 0.0 0.0 0.00 0.00 0.00 70 1019.3
20260830183125 59 0.0 0.0 0.00 0.00 0.00 70 1019.2
20260830182109 59 0.0 0.0 0.00 0.01 0.00 70 1019.2
20260830181127 59 0.0 0.0 0.00 0.03 0.00 71 1019.3
20260830180010 58 0.0 0.0 0.00 0.06 0.00 72 1019.3
20260830174930 58 0.0 0.0 0.00 0.08 0.00 73 1019.4
20260830173947 58 0.0 0.0 0.00 0.10 0.00 73 1019.4
20260830172929 58 0.0 0.0 0.00 0.12 0.00 73 1019.4
20260830171936 58 0.0 0.0 0.00 0.13 0.00 72 1019.3
20260830170955 58 0.0 0.0 0.00 0.13 0.00 73 1019.4
20260830165953 57 0.0 0.0 0.00 0.14 0.00 74 1019.2
20260830164841 57 0.0 0.0 0.00 0.14 0.00 76 1019.3
20260830163802 56 0.0 0.0 0.00 0.14 0.00 76 1019.2
20260830162813 56 0.0 0.0 0.00 0.14 0.00 76 1019.3
20260830161852 56 0.0 0.0 0.00 0.14 0.00 76 1019.4
20260830160825 56 0.0 0.0 0.00 0.14 0.00 78 1019.4
20260830155757 56 0.0 0.0 0.00 0.14 0.00 78 1019.5
20260830154803 55 0.0 0.0 0.00 0.14 0.00 80 1019.4
20260830153821 55 0.0 0.0 0.00 0.15 0.00 81 1019.4
20260830152701 54 0.0 0.0 0.00 0.16 0.00 83 1019.5
20260830151637 54 0.0 0.0 0.00 0.17 0.00 83 1019.3
20260830150551 54 0.0 0.0 0.00 0.20 0.00 85 1019.4
20260830145545 54 0.0 0.0 0.00 0.23 0.00 87 1019.4
20260830144518 54 0.0 0.0 0.00 0.26 0.00 87 1019.5
20260830142511 53 0.0 0.0 0.00 0.31 0.00 88 1019.2
20260830141444 53 0.0 0.0 0.00 0.39 0.00 88 1019.1
20260830140312 53 0.0 0.0 0.00 0.46 0.00 88 1019.1
20260830135145 53 0.0 0.0 0.00 0.46 0.00 88 1019.1
20260830134131 53 0.0 0.0 0.00 0.46 0.00 88 1019.1
20260830133125 53 0.0 0.0 0.00 0.46 0.00 88 1019.1
20260830132046 53 0.0 0.0 0.00 0.46 0.00 88 1019.1
20260830131008 53 0.0 0.0 0.00 0.46 0.00 88 1019.0
20260830124950 53 0.0 0.0 0.00 0.46 0.00 88 1019.1
20260830123833 53 0.0 0.0 0.00 0.46 0.00 88 1019.1
20260830122809 53 0.0 0.0 0.00 0.46 0.00 88 1019.2
20260830121733 53 0.0 0.0 0.00 0.46 0.00 87 1019.1
20260830120649 53 0.0 0.0 0.00 0.46 0.00 87 1019.2
20260830115647 53 0.0 0.0 0.00 0.46 0.00 86 1019.1
20260830114705 53 0.0 0.0 0.00 0.46 0.00 86 1019.2
20260830113611 53 0.0 0.0 0.00 0.46 0.00 86 1019.0
20260830112507 53 0.0 0.0 0.00 0.46 0.00 85 1019.1
20260830111535 53 0.0 0.0 0.00 0.46 0.00 86 1018.9
20260830110420 53 0.0 0.0 0.00 0.46 0.00 86 1018.9
20260830105409 53 0.0 0.0 0.00 0.46 0.00 86 1019.0
20260830104430 53 0.0 0.0 0.00 0.46 0.00 86 1019.0